Location: Nied?wied?
(53.3665°N, 14.8184°E)
Time: 18:19:11
(UTC+00:00)

ISS - Pass Details

Date: 22 May 2021
Orbit: 417 x 422 km, 51.6° (Epoch: 14 June)

Event Time Altitude Azimuth Distance (km) Brightness Sun altitude
Rises 20:57:05 0° 274° (W) 2,368 0.5 -11.6°
Reaches altitude 10° 20:59:12 10° 270° (W) 1,504 -0.6 -11.8°
Maximum altitude 21:02:31 57° 191° (S) 500 -3.7 -12.0°
Enters shadow 21:05:10 15° 114° (ESE) 1,234 -1.8 -12.2°
